Location: Bratislava
(48.1500°N, 17.1170°E)
Time: 02:14:15
(UTC+02:00)

ISS - Pass Details

Date: 31 March 2019
Orbit: 408 x 410 km, 51.6° (Epoch: 21 April)

Event Time Altitude Azimuth Distance (km) Brightness Sun altitude
Rises 22:37:28 0° 291° (WNW) 2,338 0.9 -29.5°
Reaches altitude 10° 22:39:37 10° 284° (WNW) 1,474 -0.4 -29.7°
Enters shadow 22:39:41 10° 284° (WNW) 1,450 -0.4 -29.7°
